Weather History for Phoenix, AZ

Change the Weather History Date:

Thursday, March 8, 2012

  Actual Average Record
Temperature  
Mean Temperature 59 °F 64 °F  
Max Temperature 72 °F 75 °F 92 °F (1972)
Min Temperature 45 °F 52 °F 32 °F (1969)
Degree Days  
Heating Degree Days 6 3  
Month to date heating degree days 31 29  
Since 1 July heating degree days 788 862  
Cooling Degree Days 0 2  
Month to date cooling degree days 9 12  
Year to date cooling degree days 21 29  
Growing Degree Days 8 (Base 50)    
Moisture  
Dew Point 22 °F    
Average Humidity 28    
Maximum Humidity 40    
Minimum Humidity 16    
Precipitation  
Precipitation 0.00 in 0.03 in 0.84 in (2013)
Month to date precipitation 0.00 0.30  
Year to date precipitation T 2.13  
Snow  
Snow 0.00 in - - ()
Month to date snowfall 0.0  
Year to date snowfall 0.0  
Since 1 July snowfall 0.0  
Snow Depth 0.00 in    
Sea Level Pressure  
Sea Level Pressure 30.15 in    
Wind  
Wind Speed 5 mph (WSW)    
Max Wind Speed 13 mph    
Max Gust Speed 18 mph    
Visibility 10 miles    
Events      
T = Trace of Precipitation, MM = Missing Value Source: NWS Daily Summary

Daily Weather History Graph

Daily Weather History Graph

Search for Another Location

Airport:

Trip Planner

Search our weather history database for the weather conditions in past years. The results will help you decide how hot, cold, wet, or windy it might be!

Date:

Astronomy

Mar. 08, 2012 Rise Set
Actual Time 6:46 AM MST 6:30 PM MST
Civil Twilight 6:22 AM MST 6:55 PM MST
Nautical Twilight 5:53 AM MST 7:24 PM MST
Astronomical Twilight 5:24 AM MST 7:53 PM MST
Moon 7:17 PM MST (3/8) 6:36 AM MST (3/8)
Length of Visible Light 12h 33m
Length of Day
11h 44m
Full, 100% of the Moon is Illuminated
Mar 8
Full
Mar 14
Last Quarter
Mar 22
New
Mar 30
First Quarter
Apr 6
Full

Hourly Weather History & Observations

Time (MST) Temp. Windchill Dew Point Humidity Pressure Visibility Wind Dir Wind Speed Gust Speed Precip Events Conditions
12:51 AM 48.9 °F - 19.9 °F 32% 30.03 in 10.0 mi WSW 8.1 mph - N/A   Clear
1:51 AM 48.9 °F - 19.0 °F 31% 30.04 in 10.0 mi WSW 8.1 mph - N/A   Clear
2:51 AM 48.0 °F - 19.0 °F 32% 30.05 in 10.0 mi WSW 5.8 mph - N/A   Clear
3:51 AM 46.0 °F 43.1 °F 19.9 °F 35% 30.06 in 10.0 mi SW 5.8 mph - N/A   Clear
4:51 AM 46.4 °F 43.5 °F 21.2 °F 37% 30.09 in 10.0 mi SW 5.8 mph - N/A   Clear
5:51 AM 45.0 °F 40.6 °F 21.9 °F 40% 30.12 in 10.0 mi SW 8.1 mph - N/A   Clear
6:51 AM 45.0 °F - 21.0 °F 39% 30.16 in 10.0 mi Calm Calm - N/A   Partly Cloudy
7:51 AM 48.0 °F - 21.0 °F 34% 30.19 in 10.0 mi Calm Calm - N/A   Clear
8:51 AM 51.1 °F - 21.9 °F 32% 30.20 in 10.0 mi ESE 3.5 mph - N/A   Clear
9:51 AM 54.0 °F - 21.0 °F 28% 30.21 in 10.0 mi Calm Calm - N/A   Clear
10:51 AM 57.9 °F - 21.0 °F 24% 30.22 in 10.0 mi Calm Calm - N/A   Clear
11:51 AM 61.0 °F - 21.9 °F 22% 30.21 in 10.0 mi NNW 3.5 mph - N/A   Clear
12:51 PM 64.9 °F - 24.1 °F 21% 30.19 in 10.0 mi SW 8.1 mph - N/A   Partly Cloudy
1:51 PM 68.0 °F - 24.1 °F 19% 30.16 in 10.0 mi Variable 3.5 mph - N/A   Partly Cloudy
2:51 PM 68.0 °F - 24.1 °F 19% 30.14 in 10.0 mi NNW 3.5 mph - N/A   Partly Cloudy
3:51 PM 70.0 °F - 24.1 °F 18% 30.13 in 10.0 mi West 9.2 mph - N/A   Partly Cloudy
4:51 PM 71.1 °F - 24.1 °F 17% 30.13 in 10.0 mi SW 5.8 mph - N/A   Partly Cloudy
5:51 PM 71.1 °F - 23.0 °F 16% 30.14 in 10.0 mi West 9.2 mph - N/A   Scattered Clouds
6:51 PM 70.0 °F - 23.0 °F 17% 30.16 in 10.0 mi West 11.5 mph - N/A   Scattered Clouds
7:51 PM 68.0 °F - 21.9 °F 17% 30.19 in 10.0 mi West 5.8 mph - N/A   Scattered Clouds
8:51 PM 64.9 °F - 23.0 °F 20% 30.21 in 10.0 mi ESE 3.5 mph - N/A   Partly Cloudy
9:51 PM 66.9 °F - 23.0 °F 19% 30.21 in 10.0 mi North 4.6 mph - N/A   Clear
10:51 PM 60.1 °F - 26.1 °F 27% 30.22 in 10.0 mi ESE 5.8 mph - N/A   Clear
11:51 PM 57.9 °F - 27.0 °F 31% 30.23 in 10.0 mi East 6.9 mph - N/A   Clear